Weather in Kutuzovskiy

Russia / Samara Oblast     54°12′25″N   51°13′55″E
temp.,
°C
wind,
m/s
gust,
m/s
humid.,
%
clouds,
%
prec.,
mm/h
press.,
hPa
HPBL,
m
1 march, mon
mon101:00−18nw239897 0.0 101571
04:00−21nw3310097 0.1 101742
07:00−23nw2310092 0.0 101821
10:00−20nw369780 0.0 1020208
13:00−17nw359370 0.0 1021291
16:00−15nw359382 0.0 1021397
19:00−20wnw2310083 0.0 102120
22:00−20sw239941 0.0 102021
2 march, tue
tue201:00−19ssw359935 0.0 101885
04:00−15ssw5109768 0.0 1015251
07:00−13ssw61195100 0.3 1011350
10:00−9sw71294100 1.3 1008469
13:00−5ssw81494100 0.6 1004574
16:00−1sw81397100 2.0 1002707
19:000wsw71298100 2.1 999609
22:00−1w51098100 3.0 1000576
3 march, wed
wed301:00−3w599688 0.2 1000315
04:00−9w479879 0.3 1001103
07:00−9w469891 0.0 1001109
10:00−7wnw469692 0.1 1003249
13:00−4w479491 0.1 1003450
16:00−3nw589194 0.3 1003768
19:00−6nw5992100 0.1 1004497
22:00−8wnw5109599 0.3 1006321
4 march, thu
thu401:00−11wnw499699 0.1 1006189
04:00−12w489898 0.2 1007147
07:00−14wsw479797 0.1 1007134
10:00−8wsw5109498 0.3 1007367
13:00−5sw61093100 0.1 1006556
16:00−3sw81392100 0.3 1004954
19:00−3sw91695100 0.6 1001863
22:00−1sw101795100 2.2 999927
5 march, fri
fri501:00−1sw111792100 0.8 9961031
04:00−1wsw111794100 1.4 9951035
07:00−1wsw101795100 1.1 9981033
10:00−5wnw8148578 1.6 1002742
13:00−6wnw610870 0.0 1007587
16:00−6w479020 0.0 1010542
19:00−11w349558 0.0 101243
22:00−13wnw229536 0.0 101421